Flag Weather past 2 weeks in Deggendorf, Bavaria, Germany

Now
34 °F

Overcast.


Feels Like: 34 °F
Forecast: 31 / 46 °F
Wind: 2 mph from Northeast

Location: Straubing

Current Time: Nov 29, 2014 at 12:33:08 AM

Latest Report: Nov 29, 2014 at 12:00 AM


Visibility: 6 mi

Pressure: 30.03 "Hg

Humidity: 90%

Dew point: 31 °F

Location of DeggendorfLocation

Historic Weather in Deggendorf — Graph

°F

Deggendorf temperature yesterday

Maximum temperature yesterday: 37 °F (at 3:00 PM)
Minimum temperature yesterday: 30 °F (at 5:00 AM)
Average temperature yesterday: 33 °F

Past Weeks' High & Low Weather Summary

 TemperatureHumidityPressure
High51 °F (Nov 17, 2:00 PM)100% (Nov 14, 12:00 AM)30.35 "Hg (Nov 14, 12:00 AM)
Low28 °F (Nov 26, 7:00 AM)69% (Nov 21, 12:00 PM)29.47 "Hg (Nov 16, 12:00 AM)
Average40 °F93%30.04 "Hg
* Reported Nov 13 11:00 PM — Nov 28 11:00 PM, Deggendorf, Weather by CustomWeather, © 2014

Note: Actual official high and low records may vary slightly from our data, if they occured in-between our weather recording intervals... More about our weather records

Advertising

Deggendorf weather history for previous 24 hours

 ConditionsComfort  
Time TempWeatherWind HumidityBarometerVisibility
11:00 PM
Nov 28
35 °FFog.3 mph91%30.03 "Hg4 mi
9:00 PM35 °FFog.3 mph91%30.01 "Hg4 mi
8:00 PM34 °FFog.3 mph93%30.00 "Hg3 mi
7:00 PM33 °FFog.2 mph94%30.00 "Hg3 mi
6:00 PM35 °FFog.2 mph91%29.98 "Hg4 mi
5:00 PM35 °FFog.2 mph91%29.97 "Hg3 mi
3:00 PM37 °FOvercast.5 mph84%29.96 "Hg5 mi
2:00 PM36 °FOvercast.5 mph84%29.96 "Hg5 mi
1:00 PM36 °FOvercast.6 mph86%29.97 "Hg5 mi
12:00 PM35 °FFog.6 mph87%29.98 "Hg4 mi
11:00 AM34 °FFog.3 mph91%29.99 "Hg4 mi
10:00 AM33 °FFog.5 mph93%30.00 "Hg3 mi
9:00 AM33 °FFog.3 mph94%29.99 "Hg3 mi
8:00 AM32 °FFog.3 mph95%29.98 "Hg3 mi
7:00 AM32 °FFog.3 mph95%29.98 "Hg2 mi
6:00 AM31 °FFog.3 mph94%29.97 "Hg2 mi
5:00 AM30 °FFog.2 mph96%29.97 "Hg2 mi
3:00 AM31 °FFog.3 mph93%29.96 "Hg2 mi
2:00 AM31 °FFog.2 mph96%29.97 "Hg2 mi
1:00 AM31 °FFog.2 mph94%29.96 "Hg2 mi
12:00 AM32 °FClear.3 mph97%29.96 "Hg2 mi
Weather by CustomWeather, © 2014

See weather overviewHow to use our weather pages